QPF
0.09 0.10 0.10 0.11 0.09 0.05 0.02 0.01 0.00 0.00 0.00 0.00 0.00 0.01 0.00 0.00 0.00 0.00 0.00 0.00 0.00 0.00 0.01 0.01 0.02 0.02 0.01 0.01 0.00 0.00 0.00 0.00 0.01 0.01 0.01 0.01 0.02 0.02 0.03 0.03 0.02 0.02 0.03 0.02 0.01 0.01 0.01 0.00 0.00
0.09 0.12 0.14 0.15 0.08 0.05 0.02 0.01 0.00 0.00 0.00 0.00 0.00 0.00 0.00 0.00 0.00 0.00 0.01 0.00 0.00 0.00 0.01 0.01 0.02 0.01 0.01 0.01 0.00 0.00 0.00 0.00 0.01 0.01 0.01 0.02 0.02 0.03 0.04 0.03 0.03 0.03 0.03 0.02 0.01 0.00 0.00 0.00 0.00
0.11 0.16 0.19 0.16 0.11 0.06 0.02 0.00 0.00 0.00 0.01 0.00 0.01 0.01 0.01 0.01 0.00 0.00 0.01 0.01 0.00 0.00 0.01 0.01 0.02 0.01 0.01 0.01 0.00 0.00 0.00 0.00 0.01 0.01 0.02 0.02 0.02 0.03 0.03 0.03 0.03 0.02 0.02 0.01 0.00 0.00 0.00 0.00 0.00
0.14 0.21 0.22 0.20 0.12 0.04 0.01 0.00 0.00 0.00 0.01 0.00 0.01 0.02 0.02 0.01 0.00 0.01 0.02 0.02 0.00 0.01 0.01 0.03 0.02 0.01 0.01 0.00 0.00 0.00 0.00 0.01 0.01 0.01 0.01 0.02 0.03 0.03 0.03 0.02 0.01 0.01 0.01 0.01 0.00 0.00 0.00 0.00 0.00
0.17 0.23 0.23 0.20 0.11 0.04 0.01 0.01 0.00 0.00 0.01 0.01 0.02 0.03 0.05 0.03 0.01 0.02 0.03 0.02 0.02 0.01 0.02 0.03 0.02 0.01 0.01 0.00 0.00 0.00 0.01 0.01 0.01 0.01 0.01 0.02 0.02 0.02 0.01 0.01 0.00 0.01 0.01 0.00 0.00 0.00 0.00 0.00 0.00
0.19 0.27 0.25 0.17 0.08 0.03 0.01 0.01 0.01 0.01 0.01 0.02 0.04 0.05 0.06 0.05 0.03 0.03 0.04 0.03 0.02 0.02 0.02 0.04 0.04 0.02 0.01 0.00 0.00 0.00 0.01 0.01 0.01 0.01 0.01 0.01 0.01 0.01 0.00 0.00 0.00 0.00 0.00 0.00 0.00 0.00 0.00 0.00 0.00
0.19 0.27 0.21 0.12 0.05 0.03 0.01 0.02 0.02 0.01 0.01 0.02 0.03 0.06 0.07 0.09 0.08 0.06 0.05 0.05 0.03 0.03 0.04 0.06 0.06 0.04 0.01 0.00 0.00 0.00 0.00 0.01 0.01 0.01 0.01 0.01 0.01 0.00 0.00 0.00 0.00 0.00 0.00 0.00 0.00 0.00 0.00 0.00 0.00
0.19 0.27 0.18 0.11 0.05 0.03 0.02 0.02 0.03 0.02 0.02 0.02 0.04 0.06 0.06 0.10 0.12 0.10 0.07 0.08 0.07 0.06 0.06 0.06 0.07 0.04 0.02 0.01 0.00 0.00 0.00 0.01 0.00 0.00 0.00 0.00 0.00 0.00 0.00 0.00 0.00 0.00 0.00 0.00 0.00 0.00 0.00 0.00 0.00
0.17 0.25 0.16 0.09 0.06 0.04 0.03 0.03 0.04 0.03 0.03 0.04 0.05 0.06 0.09 0.13 0.14 0.11 0.09 0.09 0.13 0.12 0.09 0.08 0.06 0.03 0.01 0.01 0.01 0.01 0.01 0.00 0.00 0.00 0.00 0.00 0.00 0.00 0.00 0.00 0.00 0.00 0.00 0.00 0.00 0.00 0.00 0.00 0.00
0.15 0.20 0.15 0.10 0.07 0.06 0.05 0.05 0.05 0.06 0.06 0.05 0.07 0.11 0.15 0.19 0.16 0.11 0.07 0.06 0.10 0.12 0.12 0.10 0.07 0.04 0.02 0.01 0.01 0.01 0.01 0.00 0.00 0.00 0.00 0.00 0.00 0.00 0.00 0.00 0.00 0.00 0.00 0.00 0.00 0.00 0.00 0.00 0.00
0.12 0.14 0.13 0.12 0.09 0.07 0.08 0.06 0.06 0.07 0.07 0.05 0.05 0.10 0.16 0.23 0.21 0.16 0.09 0.05 0.05 0.10 0.14 0.14 0.09 0.05 0.03 0.01 0.01 0.01 0.01 0.00 0.00 0.00 0.00 0.00 0.00 0.00 0.00 0.00 0.00 0.00 0.00 0.00 0.00 0.00 0.00 0.00 0.00
0.10 0.11 0.11 0.13 0.12 0.09 0.08 0.07 0.07 0.08 0.07 0.04 0.05 0.09 0.15 0.20 0.21 0.21 0.16 0.11 0.07 0.07 0.10 0.13 0.10 0.06 0.04 0.02 0.01 0.01 0.00 0.00 0.00 0.00 0.00 0.00 0.00 0.00 0.00 0.00 0.00 0.00 0.00 0.00 0.00 0.00 0.00 0.00 0.00
0.08 0.10 0.08 0.10 0.12 0.10 0.09 0.08 0.06 0.06 0.08 0.07 0.06 0.09 0.16 0.22 0.23 0.25 0.25 0.21 0.14 0.08 0.08 0.11 0.10 0.06 0.04 0.02 0.01 0.01 0.00 0.00 0.00 0.00 0.00 0.00 0.00 0.00 0.00 0.00 0.00 0.00 0.00 0.00 0.00 0.00 0.00 0.00 0.00
0.06 0.08 0.08 0.07 0.10 0.10 0.09 0.08 0.06 0.05 0.08 0.12 0.09 0.09 0.13 0.20 0.24 0.27 0.27 0.26 0.21 0.14 0.11 0.12 0.12 0.08 0.04 0.02 0.02 0.01 0.01 0.01 0.00 0.00 0.00 0.00 0.00 0.00 0.00 0.00 0.00 0.00 0.00 0.00 0.00 0.00 0.00 0.00 0.00
0.05 0.07 0.08 0.08 0.09 0.11 0.09 0.08 0.06 0.05 0.08 0.12 0.11 0.09 0.10 0.15 0.22 0.27 0.26 0.27 0.27 0.20 0.17 0.15 0.16 0.13 0.08 0.04 0.02 0.02 0.02 0.02 0.01 0.00 0.00 0.00 0.00 0.00 0.00 0.00 0.00 0.00 0.00 0.00 0.00 0.00 0.00 0.00 0.00
0.05 0.06 0.07 0.07 0.09 0.10 0.10 0.08 0.04 0.04 0.06 0.09 0.11 0.10 0.09 0.10 0.17 0.26 0.29 0.30 0.33 0.27 0.22 0.20 0.20 0.17 0.11 0.06 0.04 0.03 0.02 0.02 0.01 0.01 0.00 0.00 0.00 0.00 0.00 0.00 0.00 0.00 0.00 0.00 0.00 0.00 0.00 0.00 0.00
0.05 0.05 0.04 0.05 0.08 0.09 0.10 0.08 0.04 0.04 0.06 0.07 0.10 0.10 0.09 0.09 0.11 0.20 0.28 0.29 0.32 0.30 0.26 0.26 0.25 0.23 0.15 0.12 0.09 0.06 0.03 0.03 0.02 0.01 0.01 0.01 0.00 0.01 0.01 0.01 0.01 0.00 0.00 0.00 0.00 0.00 0.00 0.00 0.00
0.04 0.03 0.03 0.05 0.07 0.06 0.07 0.07 0.05 0.04 0.06 0.06 0.07 0.09 0.09 0.10 0.09 0.11 0.20 0.24 0.31 0.35 0.33 0.31 0.31 0.33 0.30 0.24 0.20 0.15 0.10 0.07 0.06 0.04 0.03 0.02 0.02 0.02 0.02 0.01 0.01 0.01 0.01 0.00 0.00 0.00 0.00 0.00 0.00
0.04 0.02 0.02 0.05 0.06 0.05 0.05 0.06 0.06 0.05 0.05 0.05 0.05 0.06 0.07 0.08 0.09 0.10 0.13 0.20 0.26 0.36 0.40 0.39 0.37 0.41 0.46 0.36 0.25 0.19 0.14 0.14 0.12 0.09 0.07 0.06 0.05 0.04 0.03 0.03 0.03 0.02 0.02 0.02 0.01 0.01 0.01 0.00 0.00
0.03 0.02 0.02 0.03 0.05 0.05 0.05 0.05 0.05 0.05 0.04 0.04 0.05 0.04 0.04 0.05 0.05 0.07 0.10 0.13 0.17 0.26 0.36 0.41 0.43 0.45 0.50 0.46 0.36 0.28 0.25 0.23 0.21 0.19 0.15 0.13 0.10 0.06 0.04 0.04 0.03 0.03 0.03 0.03 0.02 0.02 0.01 0.01 0.01
0.03 0.02 0.02 0.03 0.05 0.04 0.04 0.04 0.03 0.03 0.03 0.03 0.03 0.04 0.03 0.03 0.03 0.04 0.06 0.09 0.12 0.15 0.23 0.33 0.39 0.43 0.48 0.52 0.53 0.51 0.44 0.34 0.27 0.25 0.24 0.22 0.19 0.14 0.12 0.10 0.08 0.06 0.04 0.03 0.03 0.03 0.02 0.01 0.01
0.02 0.01 0.01 0.02 0.04 0.04 0.04 0.05 0.03 0.02 0.02 0.01 0.02 0.03 0.02 0.01 0.02 0.03 0.04 0.06 0.09 0.11 0.16 0.23 0.31 0.38 0.43 0.46 0.50 0.50 0.44 0.35 0.28 0.27 0.28 0.28 0.26 0.23 0.20 0.16 0.11 0.09 0.07 0.05 0.05 0.03 0.03 0.03 0.02
0.01 0.01 0.01 0.02 0.02 0.02 0.03 0.03 0.02 0.02 0.02 0.01 0.01 0.02 0.02 0.01 0.01 0.02 0.03 0.04 0.06 0.09 0.13 0.18 0.26 0.31 0.36 0.39 0.38 0.41 0.42 0.39 0.36 0.33 0.30 0.27 0.25 0.23 0.20 0.19 0.15 0.11 0.08 0.06 0.05 0.04 0.04 0.03 0.03
0.01 0.01 0.01 0.02 0.02 0.02 0.01 0.01 0.01 0.01 0.01 0.01 0.01 0.01 0.01 0.01 0.01 0.01 0.02 0.03 0.04 0.06 0.09 0.13 0.22 0.30 0.32 0.34 0.34 0.36 0.37 0.37 0.36 0.34 0.30 0.28 0.25 0.21 0.19 0.17 0.16 0.14 0.11 0.09 0.07 0.05 0.04 0.03 0.03
0.02 0.02 0.02 0.03 0.02 0.02 0.01 0.01 0.01 0.00 0.01 0.01 0.01 0.01 0.01 0.01 0.01 0.01 0.01 0.02 0.02 0.04 0.06 0.08 0.11 0.17 0.23 0.29 0.33 0.32 0.34 0.34 0.30 0.29 0.29 0.30 0.28 0.22 0.19 0.19 0.17 0.16 0.14 0.11 0.09 0.06 0.04 0.04 0.04
0.02 0.02 0.01 0.01 0.02 0.02 0.01 0.01 0.00 0.00 0.00 0.00 0.01 0.01 0.01 0.01 0.00 0.00 0.00 0.01 0.02 0.02 0.04 0.05 0.07 0.07 0.10 0.15 0.18 0.20 0.24 0.26 0.25 0.23 0.21 0.21 0.21 0.19 0.18 0.18 0.16 0.15 0.13 0.12 0.10 0.08 0.06 0.05 0.05
0.02 0.01 0.00 0.01 0.01 0.02 0.01 0.00 0.00 0.00 0.01 0.01 0.01 0.00 0.01 0.01 0.00 0.00 0.00 0.01 0.02 0.02 0.03 0.03 0.04 0.05 0.06 0.09 0.11 0.12 0.13 0.14 0.14 0.14 0.13 0.13 0.14 0.14 0.13 0.12 0.11 0.11 0.11 0.11 0.11 0.10 0.09 0.07 0.06
0.01 0.01 0.01 0.01 0.01 0.01 0.01 0.00 0.01 0.01 0.01 0.02 0.01 0.01 0.00 0.00 0.00 0.00 0.00 0.01 0.01 0.01 0.02 0.02 0.03 0.04 0.04 0.05 0.06 0.07 0.09 0.10 0.11 0.11 0.10 0.11 0.11 0.11 0.11 0.10 0.09 0.08 0.08 0.08 0.10 0.09 0.09 0.08 0.06
0.02 0.01 0.01 0.01 0.01 0.01 0.01 0.01 0.01 0.01 0.02 0.03 0.03 0.01 0.01 0.00 0.00 0.00 0.00 0.00 0.01 0.01 0.01 0.02 0.02 0.02 0.02 0.03 0.04 0.03 0.04 0.05 0.06 0.08 0.08 0.08 0.09 0.09 0.08 0.08 0.07 0.07 0.06 0.06 0.06 0.07 0.07 0.08 0.08
0.01 0.01 0.02 0.02 0.02 0.01 0.01 0.01 0.00 0.01 0.02 0.02 0.03 0.02 0.01 0.00 0.00 0.00 0.01 0.00 0.00 0.01 0.01 0.01 0.01 0.02 0.02 0.02 0.02 0.02 0.02 0.03 0.03 0.04 0.05 0.05 0.06 0.06 0.06 0.06 0.05 0.04 0.04 0.04 0.03 0.03 0.04 0.04 0.04
MSLP
1013.81 1014.07 1014.35 1014.58 1014.71 1014.68 1014.49 1014.14 1013.67 1013.12 1012.53 1011.95 1011.39 1010.87 1010.38 1009.92 1009.48 1009.09 1008.75 1008.50 1008.38 1008.42 1008.64 1009.03 1009.56 1010.18 1010.84 1011.46 1012.00 1012.45 1012.79 1013.05 1013.26 1013.48 1013.73 1014.04 1014.41 1014.82 1015.26 1015.70 1016.11 1016.48 1016.81 1017.10 1017.36 1017.61 1017.85 1018.08 1018.31
1013.98 1014.25 1014.49 1014.65 1014.67 1014.51 1014.19 1013.71 1013.11 1012.44 1011.74 1011.06 1010.41 1009.81 1009.27 1008.79 1008.36 1008.03 1007.78 1007.67 1007.70 1007.89 1008.25 1008.75 1009.36 1010.03 1010.71 1011.34 1011.91 1012.38 1012.77 1013.10 1013.38 1013.65 1013.94 1014.27 1014.62 1015.01 1015.42 1015.83 1016.22 1016.60 1016.95 1017.28 1017.58 1017.86 1018.12 1018.36 1018.59
1014.17 1014.40 1014.57 1014.62 1014.52 1014.25 1013.82 1013.25 1012.59 1011.86 1011.11 1010.37 1009.66 1009.00 1008.40 1007.88 1007.45 1007.15 1006.99 1007.00 1007.18 1007.52 1008.02 1008.63 1009.31 1010.01 1010.69 1011.32 1011.87 1012.35 1012.76 1013.13 1013.47 1013.79 1014.12 1014.46 1014.81 1015.17 1015.54 1015.91 1016.29 1016.67 1017.04 1017.41 1017.76 1018.09 1018.39 1018.65 1018.88
1014.37 1014.51 1014.57 1014.49 1014.27 1013.90 1013.41 1012.81 1012.15 1011.43 1010.70 1009.96 1009.23 1008.53 1007.87 1007.30 1006.85 1006.56 1006.46 1006.57 1006.88 1007.36 1007.99 1008.70 1009.43 1010.15 1010.81 1011.40 1011.91 1012.37 1012.78 1013.16 1013.54 1013.91 1014.28 1014.64 1014.99 1015.34 1015.67 1016.02 1016.38 1016.75 1017.15 1017.55 1017.95 1018.33 1018.68 1018.98 1019.23
1014.53 1014.57 1014.49 1014.28 1013.94 1013.50 1012.98 1012.41 1011.82 1011.19 1010.54 1009.85 1009.14 1008.41 1007.71 1007.08 1006.58 1006.28 1006.21 1006.39 1006.80 1007.41 1008.15 1008.95 1009.73 1010.45 1011.07 1011.60 1012.05 1012.45 1012.83 1013.22 1013.62 1014.03 1014.44 1014.84 1015.20 1015.55 1015.87 1016.19 1016.53 1016.90 1017.31 1017.74 1018.18 1018.61 1019.01 1019.34 1019.62
1014.64 1014.54 1014.32 1013.97 1013.53 1013.05 1012.55 1012.06 1011.59 1011.11 1010.59 1010.01 1009.35 1008.62 1007.88 1007.18 1006.61 1006.27 1006.19 1006.41 1006.90 1007.60 1008.43 1009.30 1010.12 1010.83 1011.41 1011.87 1012.25 1012.59 1012.93 1013.31 1013.72 1014.18 1014.64 1015.08 1015.48 1015.84 1016.16 1016.47 1016.79 1017.15 1017.55 1018.00 1018.47 1018.93 1019.36 1019.74 1020.04
1014.66 1014.44 1014.07 1013.60 1013.08 1012.58 1012.13 1011.75 1011.44 1011.14 1010.79 1010.34 1009.75 1009.04 1008.26 1007.49 1006.84 1006.43 1006.31 1006.53 1007.05 1007.81 1008.72 1009.64 1010.49 1011.21 1011.76 1012.17 1012.49 1012.77 1013.08 1013.44 1013.88 1014.37 1014.88 1015.37 1015.82 1016.20 1016.54 1016.84 1017.15 1017.49 1017.88 1018.32 1018.79 1019.27 1019.72 1020.12 1020.44
1014.63 1014.29 1013.79 1013.21 1012.63 1012.12 1011.73 1011.47 1011.33 1011.21 1011.03 1010.72 1010.22 1009.53 1008.72 1007.87 1007.13 1006.63 1006.45 1006.63 1007.15 1007.94 1008.89 1009.87 1010.76 1011.49 1012.04 1012.43 1012.71 1012.97 1013.26 1013.62 1014.08 1014.61 1015.17 1015.72 1016.21 1016.63 1016.98 1017.28 1017.57 1017.88 1018.25 1018.66 1019.12 1019.59 1020.05 1020.45 1020.79
1014.58 1014.14 1013.54 1012.87 1012.23 1011.71 1011.37 1011.22 1011.22 1011.26 1011.23 1011.04 1010.62 1009.96 1009.12 1008.21 1007.38 1006.77 1006.51 1006.63 1007.12 1007.91 1008.89 1009.91 1010.85 1011.62 1012.20 1012.61 1012.91 1013.16 1013.46 1013.84 1014.32 1014.89 1015.49 1016.08 1016.61 1017.06 1017.42 1017.72 1018.00 1018.29 1018.62 1019.00 1019.42 1019.87 1020.30 1020.70 1021.03
1014.58 1014.06 1013.38 1012.64 1011.94 1011.41 1011.09 1011.00 1011.08 1011.23 1011.32 1011.23 1010.87 1010.23 1009.38 1008.41 1007.51 1006.81 1006.45 1006.50 1006.95 1007.72 1008.71 1009.76 1010.75 1011.58 1012.23 1012.70 1013.04 1013.34 1013.67 1014.08 1014.58 1015.17 1015.80 1016.41 1016.97 1017.43 1017.81 1018.11 1018.38 1018.64 1018.94 1019.28 1019.66 1020.07 1020.48 1020.85 1021.17
1014.68 1014.11 1013.37 1012.56 1011.81 1011.23 1010.90 1010.81 1010.92 1011.12 1011.27 1011.22 1010.91 1010.31 1009.45 1008.47 1007.51 1006.75 1006.32 1006.29 1006.68 1007.41 1008.39 1009.46 1010.50 1011.41 1012.14 1012.70 1013.13 1013.50 1013.88 1014.32 1014.84 1015.44 1016.07 1016.69 1017.25 1017.72 1018.10 1018.41 1018.67 1018.92 1019.19 1019.50 1019.85 1020.22 1020.59 1020.93 1021.22
1014.90 1014.31 1013.52 1012.66 1011.84 1011.20 1010.80 1010.67 1010.74 1010.92 1011.06 1011.04 1010.76 1010.20 1009.37 1008.41 1007.45 1006.66 1006.18 1006.09 1006.41 1007.09 1008.03 1009.11 1010.18 1011.16 1011.99 1012.65 1013.18 1013.63 1014.07 1014.55 1015.08 1015.67 1016.28 1016.88 1017.42 1017.89 1018.27 1018.58 1018.84 1019.10 1019.36 1019.65 1019.98 1020.31 1020.65 1020.96 1021.22
1015.21 1014.61 1013.80 1012.89 1012.02 1011.29 1010.79 1010.56 1010.54 1010.65 1010.75 1010.72 1010.47 1009.96 1009.20 1008.30 1007.39 1006.62 1006.12 1005.99 1006.24 1006.85 1007.74 1008.79 1009.88 1010.90 1011.80 1012.56 1013.19 1013.74 1014.24 1014.75 1015.28 1015.85 1016.42 1016.97 1017.48 1017.93 1018.31 1018.63 1018.91 1019.19 1019.46 1019.76 1020.07 1020.39 1020.70 1020.98 1021.21
1015.52 1014.93 1014.12 1013.18 1012.25 1011.44 1010.83 1010.47 1010.32 1010.33 1010.36 1010.32 1010.10 1009.66 1009.01 1008.23 1007.42 1006.72 1006.24 1006.08 1006.27 1006.80 1007.60 1008.58 1009.63 1010.67 1011.62 1012.46 1013.18 1013.80 1014.36 1014.90 1015.43 1015.96 1016.48 1016.98 1017.45 1017.87 1018.24 1018.58 1018.89 1019.20 1019.51 1019.83 1020.15 1020.47 1020.76 1021.01 1021.21
1015.72 1015.15 1014.35 1013.40 1012.44 1011.55 1010.85 1010.36 1010.09 1009.98 1009.95 1009.88 1009.71 1009.37 1008.87 1008.24 1007.57 1006.98 1006.55 1006.38 1006.51 1006.94 1007.63 1008.50 1009.48 1010.48 1011.45 1012.33 1013.11 1013.80 1014.41 1014.97 1015.49 1015.99 1016.46 1016.90 1017.32 1017.72 1018.09 1018.44 1018.79 1019.14 1019.50 1019.86 1020.20 1020.53 1020.82 1021.05 1021.22
1015.70 1015.15 1014.37 1013.44 1012.47 1011.56 1010.78 1010.20 1009.82 1009.62 1009.52 1009.46 1009.34 1009.12 1008.78 1008.34 1007.85 1007.38 1007.03 1006.87 1006.93 1007.25 1007.79 1008.53 1009.40 1010.32 1011.25 1012.15 1012.97 1013.71 1014.36 1014.94 1015.46 1015.93 1016.36 1016.76 1017.14 1017.51 1017.87 1018.24 1018.62 1019.02 1019.42 1019.82 1020.20 1020.55 1020.84 1021.07 1021.22
1015.36 1014.83 1014.09 1013.22 1012.28 1011.38 1010.58 1009.95 1009.50 1009.24 1009.11 1009.05 1009.01 1008.91 1008.74 1008.49 1008.18 1007.86 1007.59 1007.44 1007.44 1007.64 1008.03 1008.60 1009.32 1010.14 1011.01 1011.88 1012.72 1013.50 1014.19 1014.81 1015.33 1015.79 1016.20 1016.56 1016.91 1017.25 1017.61 1017.99 1018.39 1018.82 1019.26 1019.69 1020.11 1020.48 1020.79 1021.02 1021.17
1014.70 1014.18 1013.50 1012.70 1011.85 1011.00 1010.24 1009.61 1009.14 1008.85 1008.71 1008.67 1008.70 1008.72 1008.71 1008.64 1008.50 1008.31 1008.12 1007.98 1007.93 1008.01 1008.24 1008.65 1009.21 1009.91 1010.69 1011.53 1012.36 1013.17 1013.90 1014.55 1015.11 1015.58 1015.97 1016.32 1016.64 1016.97 1017.31 1017.68 1018.10 1018.54 1019.00 1019.46 1019.90 1020.29 1020.62 1020.87 1021.03
1013.77 1013.26 1012.64 1011.94 1011.20 1010.46 1009.78 1009.20 1008.75 1008.46 1008.32 1008.31 1008.39 1008.51 1008.62 1008.69 1008.70 1008.64 1008.52 1008.39 1008.29 1008.26 1008.36 1008.60 1009.02 1009.59 1010.29 1011.08 1011.91 1012.73 1013.51 1014.21 1014.80 1015.30 1015.71 1016.06 1016.37 1016.67 1017.00 1017.35 1017.76 1018.19 1018.65 1019.11 1019.56 1019.97 1020.32 1020.59 1020.79
1012.68 1012.18 1011.63 1011.05 1010.44 1009.84 1009.27 1008.77 1008.37 1008.10 1007.96 1007.96 1008.07 1008.24 1008.44 1008.61 1008.72 1008.75 1008.70 1008.59 1008.45 1008.35 1008.34 1008.45 1008.74 1009.20 1009.82 1010.57 1011.39 1012.24 1013.06 1013.81 1014.46 1014.99 1015.43 1015.79 1016.10 1016.40 1016.69 1017.03 1017.40 1017.80 1018.24 1018.69 1019.13 1019.55 1019.91 1020.22 1020.45
1011.61 1011.11 1010.64 1010.17 1009.71 1009.25 1008.81 1008.40 1008.05 1007.79 1007.65 1007.63 1007.72 1007.91 1008.14 1008.37 1008.55 1008.64 1008.64 1008.55 1008.41 1008.26 1008.18 1008.21 1008.40 1008.78 1009.34 1010.05 1010.87 1011.74 1012.60 1013.40 1014.11 1014.70 1015.17 1015.56 1015.88 1016.16 1016.44 1016.74 1017.07 1017.43 1017.82 1018.24 1018.67 1019.08 1019.47 1019.80 1020.08
1010.69 1010.21 1009.81 1009.46 1009.14 1008.82 1008.50 1008.17 1007.86 1007.59 1007.42 1007.35 1007.39 1007.53 1007.75 1007.98 1008.19 1008.33 1008.37 1008.32 1008.20 1008.05 1007.94 1007.93 1008.07 1008.40 1008.91 1009.60 1010.42 1011.30 1012.20 1013.04 1013.80 1014.44 1014.97 1015.39 1015.72 1016.01 1016.27 1016.54 1016.82 1017.14 1017.48 1017.86 1018.26 1018.66 1019.05 1019.42 1019.74
1010.04 1009.59 1009.27 1009.03 1008.83 1008.63 1008.40 1008.13 1007.83 1007.54 1007.30 1007.14 1007.10 1007.16 1007.32 1007.53 1007.74 1007.90 1007.99 1007.98 1007.90 1007.79 1007.69 1007.68 1007.81 1008.11 1008.61 1009.28 1010.08 1010.97 1011.89 1012.77 1013.57 1014.26 1014.83 1015.29 1015.65 1015.95 1016.21 1016.45 1016.70 1016.98 1017.28 1017.62 1017.98 1018.37 1018.76 1019.15 1019.51
1009.73 1009.32 1009.08 1008.94 1008.84 1008.73 1008.56 1008.31 1008.00 1007.65 1007.32 1007.05 1006.89 1006.86 1006.94 1007.10 1007.29 1007.47 1007.60 1007.65 1007.64 1007.58 1007.53 1007.55 1007.69 1007.99 1008.46 1009.11 1009.90 1010.78 1011.69 1012.59 1013.42 1014.15 1014.76 1015.26 1015.66 1015.99 1016.26 1016.50 1016.74 1016.99 1017.26 1017.56 1017.89 1018.26 1018.65 1019.04 1019.42
1009.72 1009.39 1009.23 1009.18 1009.16 1009.11 1008.97 1008.71 1008.35 1007.92 1007.49 1007.11 1006.83 1006.69 1006.68 1006.78 1006.96 1007.15 1007.32 1007.44 1007.49 1007.51 1007.52 1007.58 1007.74 1008.04 1008.51 1009.12 1009.88 1010.73 1011.62 1012.51 1013.35 1014.10 1014.75 1015.30 1015.74 1016.11 1016.41 1016.68 1016.92 1017.16 1017.42 1017.70 1018.01 1018.35 1018.73 1019.11 1019.50
1009.99 1009.75 1009.67 1009.69 1009.73 1009.71 1009.57 1009.28 1008.86 1008.35 1007.82 1007.33 1006.94 1006.70 1006.61 1006.67 1006.83 1007.03 1007.24 1007.42 1007.55 1007.63 1007.71 1007.81 1007.99 1008.29 1008.73 1009.31 1010.01 1010.81 1011.66 1012.52 1013.35 1014.11 1014.78 1015.37 1015.87 1016.28 1016.64 1016.94 1017.21 1017.47 1017.73 1018.00 1018.30 1018.63 1018.98 1019.35 1019.72
1010.43 1010.29 1010.30 1010.39 1010.46 1010.44 1010.29 1009.96 1009.48 1008.90 1008.28 1007.70 1007.23 1006.92 1006.78 1006.80 1006.95 1007.17 1007.42 1007.65 1007.84 1007.98 1008.10 1008.24 1008.43 1008.72 1009.12 1009.64 1010.28 1011.01 1011.80 1012.61 1013.40 1014.16 1014.84 1015.46 1016.00 1016.48 1016.89 1017.25 1017.56 1017.86 1018.14 1018.42 1018.71 1019.03 1019.36 1019.70 1020.04
1010.99 1010.94 1011.02 1011.15 1011.24 1011.23 1011.04 1010.68 1010.16 1009.52 1008.85 1008.22 1007.71 1007.35 1007.19 1007.20 1007.34 1007.58 1007.86 1008.12 1008.35 1008.54 1008.69 1008.84 1009.03 1009.29 1009.64 1010.11 1010.67 1011.32 1012.03 1012.78 1013.52 1014.25 1014.93 1015.57 1016.15 1016.67 1017.14 1017.55 1017.92 1018.26 1018.57 1018.88 1019.17 1019.47 1019.78 1020.10 1020.41
1011.57 1011.61 1011.74 1011.90 1012.00 1011.97 1011.77 1011.38 1010.83 1010.18 1009.49 1008.85 1008.33 1007.97 1007.81 1007.82 1007.97 1008.22 1008.52 1008.80 1009.05 1009.26 1009.42 1009.58 1009.75 1009.98 1010.28 1010.67 1011.16 1011.73 1012.36 1013.03 1013.72 1014.41 1015.07 1015.71 1016.30 1016.86 1017.37 1017.83 1018.25 1018.64 1018.98 1019.30 1019.60 1019.90 1020.19 1020.47 1020.74
1012.16 1012.25 1012.41 1012.58 1012.68 1012.64 1012.42 1012.02 1011.47 1010.82 1010.15 1009.54 1009.04 1008.71 1008.57 1008.59 1008.76 1009.02 1009.31 1009.60 1009.85 1010.06 1010.23 1010.37 1010.53 1010.73 1010.99 1011.33 1011.75 1012.24 1012.80 1013.40 1014.02 1014.66 1015.28 1015.90 1016.49 1017.05 1017.59 1018.08 1018.53 1018.95 1019.32 1019.66 1019.97 1020.25 1020.52 1020.77 1021.01
Thickness
5611 5614 5618 5614 5606 5603 5615 5635 5654 5668 5680 5698 5708 5710 5712 5716 5718 5725 5749 5760 5762 5759 5757 5755 5753 5751 5749 5748 5747 5746 5745 5745 5744 5743 5743 5742 5741 5739 5738 5737 5735 5734 5732 5731 5729 5727 5725 5724 5722
5597 5601 5600 5596 5593 5594 5611 5634 5647 5667 5684 5696 5702 5706 5709 5716 5730 5737 5745 5753 5756 5755 5753 5751 5749 5748 5746 5745 5744 5743 5742 5741 5741 5740 5739 5739 5738 5736 5735 5733 5732 5730 5729 5727 5725 5723 5722 5720 5719
5585 5587 5583 5582 5586 5597 5613 5632 5646 5665 5678 5685 5690 5699 5705 5714 5727 5735 5744 5748 5750 5749 5748 5747 5746 5744 5743 5741 5740 5740 5739 5738 5737 5737 5736 5735 5734 5733 5732 5730 5728 5726 5725 5723 5721 5720 5718 5717 5716
5570 5569 5569 5571 5582 5600 5616 5630 5644 5655 5665 5676 5683 5688 5701 5717 5726 5734 5740 5743 5744 5744 5743 5742 5741 5740 5739 5738 5737 5736 5735 5735 5734 5733 5732 5731 5731 5730 5728 5726 5724 5722 5721 5719 5718 5716 5715 5714 5712
5557 5557 5558 5563 5577 5595 5612 5626 5637 5645 5655 5667 5675 5681 5693 5712 5724 5729 5734 5737 5738 5738 5737 5737 5736 5736 5735 5734 5733 5732 5732 5731 5730 5729 5729 5728 5727 5726 5724 5722 5720 5719 5717 5716 5714 5713 5712 5710 5709
5542 5547 5549 5559 5571 5590 5605 5620 5629 5637 5647 5658 5666 5673 5687 5704 5714 5721 5727 5730 5731 5732 5732 5731 5731 5731 5730 5729 5729 5728 5727 5727 5726 5726 5725 5724 5723 5722 5720 5718 5717 5715 5714 5712 5711 5709 5708 5707 5706
5533 5539 5547 5556 5565 5580 5600 5614 5620 5629 5638 5650 5661 5666 5680 5694 5706 5713 5719 5722 5724 5725 5725 5725 5725 5725 5725 5725 5724 5724 5723 5722 5722 5721 5721 5720 5719 5717 5716 5714 5713 5712 5710 5709 5708 5706 5705 5704 5702
5528 5532 5540 5549 5560 5575 5595 5607 5618 5624 5633 5648 5656 5659 5671 5687 5698 5705 5709 5713 5716 5717 5719 5720 5719 5720 5720 5720 5719 5719 5719 5718 5718 5717 5716 5715 5714 5713 5711 5710 5709 5708 5707 5705 5704 5703 5701 5700 5699
5523 5522 5533 5546 5557 5571 5587 5597 5608 5620 5628 5637 5648 5658 5670 5683 5690 5694 5698 5702 5706 5709 5712 5714 5714 5715 5715 5714 5714 5714 5714 5713 5713 5712 5711 5710 5709 5708 5707 5706 5705 5704 5702 5701 5700 5699 5698 5697 5696
5514 5517 5532 5548 5556 5565 5578 5589 5599 5609 5617 5626 5638 5652 5665 5674 5682 5688 5692 5697 5701 5704 5706 5709 5710 5710 5710 5710 5709 5709 5709 5708 5708 5707 5706 5705 5705 5704 5703 5701 5700 5699 5698 5697 5696 5695 5695 5694 5692
5511 5518 5531 5541 5552 5561 5570 5581 5592 5601 5606 5616 5629 5641 5653 5665 5673 5681 5688 5694 5698 5701 5702 5704 5705 5705 5705 5705 5705 5704 5704 5703 5703 5702 5701 5700 5700 5699 5698 5697 5696 5695 5694 5693 5692 5691 5691 5690 5689
5509 5518 5526 5537 5547 5556 5563 5573 5582 5593 5604 5617 5629 5638 5648 5657 5666 5673 5682 5688 5692 5695 5697 5698 5700 5700 5700 5701 5701 5700 5700 5699 5698 5698 5697 5696 5695 5695 5694 5693 5692 5691 5690 5689 5688 5687 5686 5686 5685
5505 5514 5524 5533 5542 5552 5560 5567 5575 5587 5600 5613 5624 5633 5641 5652 5661 5669 5677 5683 5686 5689 5693 5694 5695 5696 5696 5696 5697 5696 5696 5695 5694 5694 5693 5693 5692 5691 5690 5689 5688 5687 5686 5685 5684 5683 5682 5681 5681
5504 5510 5518 5529 5538 5547 5555 5564 5572 5583 5596 5607 5616 5624 5633 5643 5654 5661 5669 5674 5679 5684 5687 5689 5691 5691 5691 5692 5692 5692 5692 5691 5691 5690 5689 5689 5688 5687 5686 5685 5684 5683 5683 5682 5680 5679 5678 5677 5676
5503 5507 5515 5525 5534 5543 5551 5558 5568 5580 5591 5599 5608 5617 5627 5637 5647 5654 5663 5669 5675 5679 5682 5685 5687 5687 5687 5688 5688 5688 5688 5687 5687 5686 5686 5685 5684 5684 5683 5681 5680 5679 5679 5677 5676 5675 5674 5673 5672
5501 5502 5507 5521 5530 5540 5545 5553 5569 5578 5586 5592 5601 5610 5620 5631 5641 5649 5656 5663 5668 5673 5676 5680 5683 5683 5683 5684 5684 5684 5684 5684 5683 5683 5682 5681 5680 5680 5678 5677 5677 5676 5675 5673 5672 5670 5669 5668 5667
5492 5494 5504 5517 5528 5536 5541 5549 5564 5574 5581 5587 5596 5605 5615 5625 5634 5642 5650 5656 5661 5666 5670 5673 5677 5678 5679 5679 5680 5679 5679 5679 5680 5679 5678 5677 5676 5676 5675 5674 5673 5672 5670 5669 5668 5666 5664 5663 5662
5488 5494 5502 5510 5524 5532 5537 5545 5557 5567 5575 5582 5591 5600 5609 5618 5628 5636 5643 5650 5654 5660 5665 5668 5671 5672 5673 5673 5672 5673 5674 5674 5674 5674 5674 5673 5672 5672 5671 5670 5668 5667 5665 5664 5662 5661 5659 5658 5657
5493 5496 5500 5510 5522 5529 5534 5542 5553 5563 5570 5577 5585 5594 5603 5613 5623 5631 5638 5645 5649 5653 5657 5662 5665 5668 5668 5667 5667 5668 5669 5669 5669 5670 5670 5669 5669 5668 5666 5665 5664 5662 5661 5659 5658 5656 5654 5652 5651
5494 5496 5502 5511 5522 5528 5530 5538 5550 5560 5567 5575 5582 5590 5599 5608 5617 5625 5633 5637 5643 5648 5651 5655 5659 5662 5663 5665 5666 5665 5665 5664 5664 5664 5664 5665 5664 5663 5662 5660 5659 5658 5656 5654 5652 5651 5648 5646 5645
5493 5494 5501 5509 5517 5524 5528 5536 5545 5556 5564 5573 5579 5585 5594 5603 5611 5619 5626 5631 5636 5641 5646 5650 5653 5656 5658 5660 5659 5658 5657 5656 5656 5657 5658 5658 5658 5657 5656 5655 5653 5652 5650 5649 5647 5645 5643 5640 5638
5491 5497 5504 5510 5508 5509 5519 5523 5539 5548 5558 5568 5574 5580 5587 5596 5605 5612 5619 5625 5629 5634 5639 5643 5646 5649 5651 5653 5653 5653 5653 5653 5654 5654 5653 5652 5651 5650 5650 5648 5647 5645 5644 5643 5641 5639 5637 5635 5632
5493 5497 5501 5505 5504 5503 5510 5517 5531 5542 5554 5563 5570 5576 5583 5589 5597 5605 5612 5619 5624 5628 5633 5636 5638 5641 5644 5645 5647 5647 5647 5647 5648 5647 5645 5644 5644 5644 5643 5642 5641 5641 5639 5637 5636 5633 5632 5630 5628
5494 5495 5495 5492 5493 5498 5505 5511 5523 5535 5547 5557 5566 5571 5576 5582 5590 5598 5605 5611 5616 5620 5625 5628 5630 5633 5635 5636 5639 5640 5639 5639 5639 5638 5637 5637 5637 5636 5636 5635 5635 5634 5633 5631 5629 5627 5625 5624 5622
5490 5483 5476 5480 5478 5491 5504 5509 5520 5537 5545 5552 5560 5566 5571 5576 5583 5590 5596 5602 5607 5612 5616 5618 5622 5623 5625 5627 5630 5631 5632 5632 5632 5631 5630 5630 5629 5629 5629 5629 5628 5628 5626 5624 5622 5619 5618 5616 5615
5486 5484 5477 5479 5480 5489 5502 5507 5521 5534 5540 5548 5553 5559 5564 5569 5575 5582 5587 5592 5597 5602 5606 5609 5611 5613 5616 5618 5619 5621 5623 5624 5624 5623 5622 5622 5622 5622 5622 5622 5622 5620 5619 5616 5614 5612 5610 5608 5607
5488 5481 5484 5475 5475 5482 5495 5506 5520 5534 5538 5541 5545 5551 5556 5560 5566 5571 5577 5582 5587 5592 5595 5598 5601 5603 5604 5606 5608 5609 5612 5614 5614 5614 5614 5614 5614 5614 5614 5613 5612 5611 5610 5608 5606 5603 5601 5600 5598
5491 5488 5481 5480 5481 5486 5496 5501 5511 5525 5531 5534 5537 5541 5547 5552 5556 5561 5566 5570 5575 5580 5584 5586 5588 5590 5592 5594 5596 5598 5600 5602 5604 5604 5603 5603 5603 5603 5603 5602 5601 5600 5599 5598 5596 5593 5591 5589 5587
5489 5489 5485 5477 5479 5482 5490 5505 5518 5519 5525 5526 5530 5534 5538 5542 5547 5551 5555 5559 5564 5567 5571 5574 5576 5578 5579 5581 5583 5585 5587 5588 5590 5592 5592 5593 5593 5592 5592 5591 5590 5589 5587 5586 5584 5582 5580 5577 5575
5492 5492 5487 5484 5480 5475 5480 5499 5519 5517 5519 5522 5524 5528 5531 5535 5538 5542 5545 5549 5553 5557 5560 5562 5564 5566 5568 5569 5571 5573 5575 5576 5577 5578 5580 5581 5581 5581 5581 5580 5578 5577 5576 5574 5572 5570 5568 5566 5564